EW2000 Weather Reports


time (UTC)temp
C
wind
direction
speed
KPH
gust
KPH
rain 1hr
cm
rain 24hr
cm
rain mn
cm
humidity
%
barometer
mb
20260503180023 15 182 0.0 9.7 0.00 0.00 0.00 70 1013.4
20260503175507 14 225 0.0 16.1 0.00 0.00 0.00 71 1013.5
20260503175006 14 265 0.0 16.1 0.00 0.00 0.00 72 1013.4
20260503174509 14 255 4.8 16.1 0.00 0.00 0.00 71 1013.5
20260503174004 15 215 3.2 16.1 0.00 0.00 0.00 71 1013.4
20260503173504 15 262 0.0 8.0 0.00 0.00 0.00 75 1013.3
20260503173007 14 69 0.0 0.0 0.00 0.00 0.00 76 1013.3
20260503172502 14 344 0.0 0.0 0.00 0.00 0.00 75 1013.3
20260503172002 14 5 0.0 0.0 0.00 0.00 0.00 75 1013.3
20260503171510 13 321 0.0 0.0 0.00 0.00 0.00 76 1013.3
20260503171008 13 321 0.0 0.0 0.00 0.00 0.00 76 1013.3
20260503170508 13 263 0.0 3.2 0.00 0.00 0.00 77 1013.3
20260503151002 12 42 0.0 3.2 0.00 0.00 0.00 87 1013.0
20260503150509 12 101 0.0 0.0 0.00 0.00 0.00 88 1013.0
20260503131008 11 263 0.0 0.0 0.00 0.00 0.00 86 1011.8
20260503130507 11 263 0.0 0.0 0.00 0.00 0.00 86 1011.6
20260503110507 12 249 0.0 0.0 0.00 0.00 0.00 82 1011.5
20260503090507 12 266 0.0 0.0 0.00 0.00 0.00 82 1011.7
20260503081537 12 329 0.0 4.8 0.00 0.00 0.00 83 1012.0
20260503081008 12 254 0.0 0.0 0.00 0.00 0.00 83 1012.0
20260503080510 12 326 0.0 0.0 0.00 0.00 0.00 83 1012.2
20260503072512 12 313 0.0 0.0 0.00 0.00 0.00 82 1012.3
20260503072011 12 313 0.0 0.0 0.00 0.00 0.00 82 1012.4
20260503071528 12 328 0.0 0.0 0.00 0.00 0.00 82 1012.4
20260503071008 12 328 0.0 0.0 0.00 0.00 0.00 82 1012.4
20260503070508 12 328 0.0 0.0 0.00 0.00 0.00 82 1012.4
20260503055007 12 335 0.0 4.8 0.00 0.00 0.00 82 1012.4
20260503054516 12 352 0.0 4.8 0.00 0.00 0.00 82 1012.5
20260503054007 12 269 0.0 0.0 0.00 0.00 0.00 81 1012.5
20260503053504 12 257 0.0 0.0 0.00 0.00 0.00 81 1012.7
20260503053017 12 257 0.0 8.0 0.00 0.00 0.00 81 1012.7
20260503052506 12 257 0.0 8.0 0.00 0.00 0.00 81 1012.8
20260503052006 12 244 0.0 1.6 0.00 0.00 0.00 81 1012.8
20260503051505 12 347 0.0 0.0 0.00 0.00 0.00 81 1012.9
20260503051003 12 352 0.0 0.0 0.00 0.00 0.00 81 1012.9
20260503050503 12 360 0.0 0.0 0.00 0.00 0.00 81 1012.9
20260503050008 12 267 0.0 0.0 0.00 0.00 0.00 81 1012.9
20260503045506 12 27 0.0 0.0 0.00 0.00 0.00 81 1012.8
20260503045005 12 298 0.0 0.0 0.00 0.00 0.00 81 1012.8
20260503044512 12 292 0.0 3.2 0.00 0.00 0.00 81 1012.7
20260503044006 13 253 0.0 3.2 0.00 0.00 0.00 81 1012.6
20260503043507 13 305 0.0 8.0 0.00 0.00 0.00 81 1012.6
20260503043015 12 293 0.0 8.0 0.00 0.00 0.00 81 1012.5
20260503042508 13 323 0.0 8.0 0.00 0.00 0.00 81 1012.5
20260503042008 13 40 0.0 8.0 0.00 0.00 0.00 81 1012.5
20260503041516 12 350 0.0 9.7 0.00 0.00 0.00 81 1012.4
20260503041010 13 339 0.0 9.7 0.00 0.00 0.00 81 1012.4
20260503040503 13 301 0.0 3.2 0.00 0.00 0.00 81 1012.3
20260503040004 13 332 0.0 3.2 0.00 0.00 0.00 81 1012.2
20260503035504 13 302 0.0 3.2 0.00 0.00 0.00 81 1012.2
20260503035005 13 329 0.0 8.0 0.00 0.00 0.00 81 1012.2
20260503034509 13 352 0.0 8.0 0.00 0.00 0.00 80 1012.2
20260503034004 13 303 0.0 3.2 0.00 0.00 0.00 80 1012.1
20260503033507 13 261 0.0 6.4 0.00 0.00 0.00 80 1012.1
20260503033024 13 290 0.0 6.4 0.00 0.00 0.00 81 1012.0
20260503032507 13 329 0.0 6.4 0.00 0.00 0.00 80 1012.0
20260503032009 13 275 0.0 3.2 0.00 0.00 0.00 80 1012.0
20260503031517 13 320 0.0 1.6 0.00 0.00 0.00 80 1011.9
20260503031008 13 296 0.0 9.7 0.00 0.00 0.00 80 1011.8
20260503030507 13 280 0.0 9.7 0.00 0.00 0.00 80 1011.8
20260503030031 13 296 0.0 3.2 0.00 0.00 0.00 80 1011.8
20260503025507 13 5 0.0 4.8 0.00 0.00 0.00 79 1011.8
20260503025002 13 286 0.0 8.0 0.00 0.00 0.00 79 1011.8
20260503024506 13 317 0.0 8.0 0.00 0.00 0.00 79 1011.7
20260503024006 14 325 0.0 6.4 0.00 0.00 0.00 78 1011.7
20260503023506 14 334 0.0 3.2 0.00 0.00 0.00 79 1011.6
20260503023009 14 345 0.0 8.0 0.00 0.00 0.00 79 1011.4
20260503022505 14 335 0.0 14.5 0.00 0.00 0.00 78 1011.5
20260503022008 14 320 1.6 14.5 0.00 0.00 0.00 78 1011.5
20260503021516 14 317 0.0 8.0 0.00 0.00 0.00 77 1011.5
20260503021008 14 284 0.0 9.7 0.00 0.00 0.00 77 1011.5
20260503020507 14 335 0.0 9.7 0.00 0.00 0.00 77 1011.5
20260503020016 15 313 1.6 9.7 0.00 0.00 0.00 77 1011.5
20260503015507 15 319 0.0 9.7 0.00 0.00 0.00 76 1011.5
20260503015009 15 315 1.6 9.7 0.00 0.00 0.00 76 1011.5
20260503014520 15 265 0.0 8.0 0.00 0.00 0.00 76 1011.5
20260503014003 15 322 0.0 8.0 0.00 0.00 0.00 76 1011.5
20260503013503 15 319 0.0 6.4 0.00 0.00 0.00 77 1011.5
20260503013010 15 296 0.0 8.0 0.00 0.00 0.00 76 1011.5
20260503012506 15 325 0.0 8.0 0.00 0.00 0.00 76 1011.5
20260503012006 15 300 0.0 8.0 0.00 0.00 0.00 75 1011.5
20260503011516 15 344 0.0 12.9 0.00 0.00 0.00 75 1011.5
20260503011012 16 317 3.2 12.9 0.00 0.00 0.00 74 1011.5
20260503010512 16 298 0.0 6.4 0.00 0.00 0.00 74 1011.5
20260503010021 16 315 0.0 9.7 0.00 0.00 0.00 74 1011.4
20260503005507 16 336 0.0 9.7 0.00 0.00 0.00 74 1011.4
20260503005007 16 317 0.0 12.9 0.00 0.00 0.00 73 1011.4
20260503004543 16 317 1.6 12.9 0.00 0.00 0.00 71 1011.4
20260503004006 17 287 0.0 8.0 0.00 0.00 0.00 70 1011.4
20260503003506 17 322 0.0 9.7 0.00 0.00 0.00 70 1011.4
20260503003020 17 306 0.0 11.3 0.00 0.00 0.00 72 1011.3
20260503002503 17 309 1.6 12.9 0.00 0.00 0.00 70 1011.3
20260503002010 17 38 1.6 12.9 0.00 0.00 0.00 69 1011.3
20260503001512 17 292 0.0 12.9 0.00 0.00 0.00 71 1011.3
20260503001006 17 314 0.0 14.5 0.00 0.00 0.00 70 1011.3
20260503000506 17 289 0.0 14.5 0.00 0.00 0.00 70 1011.5
20260503000029 17 319 1.6 14.5 0.00 0.00 0.00 69 1011.4
20260502235506 17 310 3.2 14.5 0.00 0.00 0.00 69 1011.4
20260502235008 18 340 3.2 19.3 0.00 0.00 0.00 69 1011.4
20260502234520 18 330 6.4 19.3 0.00 0.00 0.00 67 1011.4
20260502234007 18 325 0.0 14.5 0.00 0.00 0.00 68 1011.4
20260502233507 18 302 1.6 16.1 0.00 0.00 0.00 68 1011.4
20260502233025 18 5 4.8 16.1 0.00 0.00 0.00 67 1011.4
20260502232507 18 307 0.0 14.5 0.00 0.00 0.00 67 1011.4
20260502232009 18 352 4.8 14.5 0.00 0.00 0.00 67 1011.4
20260502231509 19 53 1.6 14.5 0.00 0.00 0.00 67 1011.5
20260502231008 19 326 3.2 16.1 0.00 0.00 0.00 67 1011.4
20260502230507 19 321 0.0 16.1 0.00 0.00 0.00 66 1011.5
20260502230012 19 323 1.6 14.5 0.00 0.00 0.00 65 1011.6
20260502225508 20 283 0.0 14.5 0.00 0.00 0.00 67 1011.6
20260502225010 20 11 0.0 8.0 0.00 0.00 0.00 65 1011.6
20260502224519 20 327 0.0 14.5 0.00 0.00 0.00 65 1011.6
20260502224009 20 324 1.6 14.5 0.00 0.00 0.00 64 1011.6
20260502223509 20 331 0.0 4.8 0.00 0.00 0.00 67 1011.7
20260502223024 20 138 0.0 1.6 0.00 0.00 0.00 64 1011.7
20260502222507 20 128 0.0 0.0 0.00 0.00 0.00 65 1011.8
20260502222006 19 244 0.0 6.4 0.00 0.00 0.00 66 1012.0
20260502221524 19 5 0.0 12.9 0.00 0.00 0.00 65 1012.1
20260502221009 20 5 4.8 12.9 0.00 0.00 0.00 64 1012.2
20260502220503 20 238 0.0 4.8 0.00 0.00 0.00 65 1012.3
20260502220013 20 243 0.0 6.4 0.00 0.00 0.00 65 1012.3
20260502215509 19 298 0.0 6.4 0.00 0.00 0.00 66 1012.3
20260502215007 19 255 0.0 4.8 0.00 0.00 0.00 66 1012.4
20260502214518 18 299 0.0 4.8 0.00 0.00 0.00 68 1012.4
20260502214007 18 352 0.0 4.8 0.00 0.00 0.00 70 1012.4
20260502213508 18 26 0.0 8.0 0.00 0.00 0.00 69 1012.5
20260502213036 18 39 0.0 8.0 0.00 0.00 0.00 67 1012.5
20260502212510 18 343 1.6 8.0 0.00 0.00 0.00 67 1012.5
20260502212008 18 298 0.0 1.6 0.00 0.00 0.00 67 1012.5
20260502211531 18 327 0.0 6.4 0.00 0.00 0.00 71 1012.5
20260502211009 18 159 0.0 8.0 0.00 0.00 0.00 72 1012.7
20260502210509 17 37 3.2 8.0 0.00 0.00 0.00 70 1012.8
20260502210023 18 40 0.0 8.0 0.00 0.00 0.00 71 1012.9
20260502205507 18 352 0.0 8.0 0.00 0.00 0.00 72 1012.9
20260502205004 17 308 0.0 9.7 0.00 0.00 0.00 73 1013.0
20260502204514 17 126 1.6 9.7 0.00 0.00 0.00 73 1013.1
20260502204009 17 5 3.2 9.7 0.00 0.00 0.00 73 1013.2
20260502203506 17 206 0.0 9.7 0.00 0.00 0.00 74 1013.2
20260502203022 17 32 3.2 9.7 0.00 0.00 0.00 75 1013.3
20260502202507 16 336 0.0 6.4 0.00 0.00 0.00 76 1013.3
20260502202007 16 5 0.0 6.4 0.00 0.00 0.00 74 1013.5
20260502201530 17 26 0.0 6.4 0.00 0.00 0.00 75 1013.6
20260502201009 16 92 0.0 9.7 0.00 0.00 0.00 77 1013.8
20260502200512 16 346 0.0 9.7 0.00 0.00 0.00 76 1013.8
20260502200026 16 119 0.0 4.8 0.00 0.00 0.00 76 1013.9
20260502195508 16 117 0.0 1.6 0.00 0.00 0.00 77 1014.0
20260502195010 16 112 0.0 6.4 0.00 0.00 0.00 78 1014.0
20260502194523 16 58 0.0 6.4 0.00 0.00 0.00 80 1014.0
20260502194009 15 138 0.0 6.4 0.00 0.00 0.00 78 1014.1
20260502193507 15 87 0.0 6.4 0.00 0.00 0.00 80 1014.1
20260502193016 15 40 0.0 4.8 0.00 0.00 0.00 82 1014.1
20260502192508 15 45 0.0 1.6 0.00 0.00 0.00 80 1014.2
20260502192010 15 65 0.0 0.0 0.00 0.00 0.00 80 1014.2
20260502191523 15 63 0.0 0.0 0.00 0.00 0.00 81 1014.2
20260502191012 15 31 0.0 0.0 0.00 0.00 0.00 80 1014.2
20260502190508 15 26 0.0 0.0 0.00 0.00 0.00 82 1014.2
20260502190010 15 58 0.0 0.0 0.00 0.00 0.00 81 1014.2
20260502185503 15 93 0.0 0.0 0.00 0.00 0.00 83 1014.3
20260502185004 14 93 0.0 0.0 0.00 0.00 0.00 83 1014.4
20260502184520 14 16 0.0 6.4 0.00 0.00 0.00 83 1014.3
20260502184004 14 15 1.6 6.4 0.00 0.00 0.00 83 1014.3
20260502183508 14 23 0.0 4.8 0.00 0.00 0.00 84 1014.3
20260502183014 13 39 0.0 0.0 0.00 0.00 0.00 83 1014.3
20260502182508 13 44 0.0 1.6 0.00 0.00 0.00 84 1014.4
20260502182007 13 5 0.0 1.6 0.00 0.00 0.00 84 1014.4
20260502181520 13 5 0.0 1.6 0.00 0.00 0.00 84 1014.5
20260502181004 13 332 0.0 1.6 0.00 0.00 0.00 83 1014.5
20260502180503 13 331 0.0 0.0 0.00 0.00 0.00 84 1014.5